Location: LC-39B
(28.6273°N, 80.6211°W)
Time: 10:43:01
(UTC+00:00)

ISS - Visible Passes

Search period start: 16 January 2017 00:00
Search period end: 26 January 2017 00:00
Orbit: 400 x 410 km, 51.6° (Epoch: 17 January)

Date Brightness Start Highest point End Pass type
(mag) Time Alt. Az. Time Alt. Az. Time Alt. Az.
17 Jan -0.5 11:07:29 10° NNE 11:08:29 11° NE 11:09:30 10° NE visible
18 Jan -2.8 11:49:50 10° NW 11:53:03 58° NE 11:56:14 10° SE visible
19 Jan -1.5 10:59:00 16° N 11:00:49 26° NE 11:03:36 10° E visible
20 Jan -0.3 10:09:16 13° NE 10:09:16 13° NE 10:10:14 10° ENE visible
20 Jan -2.6 11:42:00 10° WNW 11:45:03 38° SW 11:48:05 10° SSE visible
21 Jan -3.4 10:52:18 55° NNW 10:52:54 82° NE 10:56:08 10° SE visible
22 Jan -0.3 10:02:43 17° ESE 10:02:43 17° ESE 10:03:39 10° ESE visible
22 Jan -1.1 11:35:25 10° W 11:36:52 12° SW 11:38:19 10° SSW visible
23 Jan -1.6 10:45:55 22° SSW 10:45:55 22° SSW 10:47:37 10° S visible
25 Jan -1.2 00:47:59 10° SW 00:49:26 24° SW 00:49:26 24° SW visible
